Hourly Data Report for July 23, 2019

TORONTO CITY
ONTARIO
Current Station Operator: ECCC - MSC

43°40'00.000" N
79°24'00.000" W
112.50 m
6158355
71508
XTO

Download Data

Hourly Data (July 2019)
Hourly Data Report for July 23, 2019
TIME
LST
Temp Definition
°C
Dew Point Definition
°C
Rel Hum Definition
%
Precip. Amount Definition
mm

Wind Dir Definition
10's deg

Wind Spd Definition
km/h
Visibility Definition
km
Stn Press Definition
kPa
Hmdx Definition


Wind Chill Definition


Weather Definition


00:00 19.1 14.0 72 0.0       99.91     LegendNANA
01:00 18.5 13.2 71 0.0       99.89     LegendNANA
02:00 18.3 11.6 65 0.0       99.88     LegendNANA
03:00 17.7 9.8 60 0.0       99.88     LegendNANA
04:00 17.3 10.0 62 0.0       99.89     LegendNANA
05:00 17.4 9.4 59 0.0       99.91     LegendNANA
06:00 17.2 9.5 60 0.0       99.92     LegendNANA
07:00 18.0 10.6 62 0.0       99.96     LegendNANA
08:00 19.9 10.8 56 0.0       100.00     LegendNANA
09:00 22.2 12.9 56 0.0       100.00 25   LegendNANA
10:00 24.3 11.8 46 0.0       100.00 26   LegendNANA
11:00 24.8 11.6 44 0.0       100.00 27   LegendNANA
12:00 23.6 11.3 46 0.0       99.99 26   LegendNANA
13:00 24.5 10.5 41 0.0       99.97 26   LegendNANA
14:00 25.2 10.3 39 0.0       99.94 27   LegendNANA
15:00 25.5 7.9 33 0.0       99.91 26   LegendNANA
16:00 24.3 9.7 40 0.0       99.92 25   LegendNANA
17:00 26.1 5.5 27 0.0       99.95 26   LegendNANA
18:00 25.2 5.0 27 0.0       99.98     LegendNANA
19:00 24.6 4.9 28 0.0       100.02     LegendNANA
20:00 23.3 5.6 32 0.0       100.05     LegendNANA
21:00 22.4 5.1 32 0.0       100.11     LegendNANA
22:00 20.6 6.9 41 0.0       100.12     LegendNANA
23:00 20.1 7.1 43 0.0       100.15     LegendNANA

Notes on Data Quality.

Legend

  • E = Estimated
  • M = Missing
  • NA = Not Available*
  • [empty] = Indicates an unobserved value
Date modified: